This is the latest recevied weather packets stored in our database for station/object WD4DAN-13. If no packets are shown the sender has not sent any weather packets the latest 10 day(s).
| Time | Temp. | Humidity | Pressure | Rain* | Wind** | Luminosity | Snow |
|---|---|---|---|---|---|---|---|
| 1777404495 | 27.22° C | 56% | - | 0 mm | - | - | - |
| 1777404191 | 28.33° C | 54% | - | 0 mm | - | - | - |
| 1777403886 | 27.22° C | 56% | - | 0 mm | - | - | - |
| 1777403575 | 27.22° C | 55% | - | 0 mm | - | - | - |
| 1777403270 | 27.22° C | 56% | - | 0 mm | - | - | - |
| 1777402970 | 26.67° C | 55% | - | 0 mm | - | - | - |
| 1777402665 | 27.22° C | 57% | - | 0 mm | - | - | - |
| 1777402364 | 27.78° C | 57% | - | 0 mm | - | - | - |
| 1777402063 | 27.22° C | 57% | - | 0 mm | - | - | - |
| 1777401759 | 26.67° C | 59% | - | 0 mm | - | - | - |
| 1777401454 | 26.67° C | 57% | - | 0 mm | - | - | - |
| 1777401149 | 26.67° C | 58% | - | 0 mm | - | - | - |
| 1777400846 | 26.67° C | 58% | - | 0 mm | - | - | - |
| 1777400542 | 26.11° C | 62% | - | 0 mm | - | - | - |
| 1777400240 | 26.67° C | 62% | - | 0 mm | - | - | - |
| 1777399935 | 26.67° C | 64% | - | 0 mm | - | - | - |
| 1777399632 | 26.11° C | 61% | - | 0 mm | - | - | - |
| 1777399330 | 26.11° C | 63% | - | 0 mm | - | - | - |
| 1777399027 | 27.22° C | 63% | - | 0 mm | - | - | - |
| 1777398724 | 26.67° C | 63% | - | 0 mm | - | - | - |
| 1777398421 | 26.11° C | 64% | - | 0 mm | - | - | - |
| 1777398117 | 26.67° C | 62% | - | 0 mm | - | - | - |
| 1777397814 | 26.11° C | 63% | - | 0 mm | - | - | - |
| 1777397504 | 25.56° C | 71% | - | 0 mm | - | - | - |
| 1777397200 | 25° C | 69% | - | 0 mm | - | - | - |
* Rain latest hour (hover to see other rain measurements)
** Current wind speed in m/s (hover to see current wind gust speed)